Voltar ao catálogo

FALCON 9 R/B

AtivoVLEO
NORAD 54698·ROCKET BODY·🇺🇸 United States

Lançado Dec 11, 2022 de Cape Canaveral Space Force Station

Loading…

Próximas Passagens (próximas 24 horas)

TLE

ObsoletoSource: Space-Track

Época: Dec 11, 2022, 07:46 UTC

1 54698U 22168C   22345.32368031  .00002049 -64822-5  00000-0 0  9996
2 54698  29.0000  41.2312 0098300  59.8200  27.0300 16.15592824    07

Acompanhe FALCON 9 R/B em tempo real com AllMySat

Download on the App Store